Volver al catálogo

COSMOS 2251 DEB

ActivoLEO
NORAD 47062·DEBRIS·🇷🇺 Russia

Lanzado Jun 16, 1993 desde Plesetsk Cosmodrome

Loading…

Próximos Pases (próximas 24 horas)

TLE

ActualizadoSource: Space-Track

Época: Sep 14, 2026, 13:53 UTC

1 47062U 93036BXS 26257.57901799  .00000538  00000-0  41800-3 0  9991
2 47062  74.0825 342.9524 0323832  44.3099  17.6328 13.72608791593868

Sigue COSMOS 2251 DEB en tiempo real con AllMySat

Download on the App Store